Weather History for South Lake Tahoe, CA

Change the Weather History Date:

Sunday, August 25, 2013

  Actual Average Record
Temperature  
Mean Temperature 57 °F 59 °F  
Max Temperature 72 °F 79 °F 91 °F (1988)
Min Temperature 41 °F 39 °F 27 °F (1978)
Degree Days  
Heating Degree Days 8 6  
Month to date heating degree days 116 118  
Since 1 June heating degree days 347 566  
Since 1 July heating degree days 153 256  
Cooling Degree Days 0 0  
Month to date cooling degree days 9 7  
Year to date cooling degree days 98 26  
Since 1 June cooling degree days 98 26  
Growing Degree Days 6 (Base 50)    
Moisture  
Dew Point 36 °F    
Average Humidity 50    
Maximum Humidity 73    
Minimum Humidity 27    
Precipitation  
Precipitation 0.00 in - 0.71 in (2014)
Month to date precipitation 0.51  
Year to date precipitation 6.44  
Sea Level Pressure  
Sea Level Pressure 30.04 in    
Wind  
Wind Speed 4 mph (SSW)    
Max Wind Speed 24 mph    
Max Gust Speed 36 mph    
Visibility 4 miles    
Events      
T = Trace of Precipitation, MM = Missing Value Source: NWS Daily Summary

Daily Weather History Graph

Daily Weather History Graph

Search for Another Location

Airport:

Trip Planner

Search our weather history database for the weather conditions in past years. The results will help you decide how hot, cold, wet, or windy it might be!

Date:

Astronomy

Aug. 25, 2013 Rise Set
Actual Time 6:22 AM PDT 7:40 PM PDT
Civil Twilight 5:55 AM PDT 8:07 PM PDT
Nautical Twilight 5:22 AM PDT 8:40 PM PDT
Astronomical Twilight 4:47 AM PDT 9:15 PM PDT
Moon 10:18 PM PDT (8/25) 11:26 AM PDT (8/25)
Length of Visible Light 14h 12m
Length of Day
13h 17m
Waning Gibbous, 75% of the Moon is Illuminated
Aug 25
Waning Gibbous
Aug 28
Last Quarter
Sep 5
New
Sep 12
First Quarter
Sep 19
Full

Hourly Weather History & Observations

Time (PDT) Temp. Windchill Dew Point Humidity Pressure Visibility Wind Dir Wind Speed Gust Speed Precip Events Conditions
12:28 AM 50.0 °F - 37.4 °F 62% 30.11 in 2.5 mi Calm Calm - N/A   Haze
12:53 AM 48.9 °F - 36.0 °F 61% 29.94 in 2.0 mi Calm Calm - N/A   Haze
1:48 AM 46.4 °F - 35.6 °F 66% 30.10 in 1.8 mi Calm Calm - N/A   Haze
1:53 AM 46.0 °F - 35.1 °F 66% 29.95 in 1.8 mi Calm Calm - N/A   Haze
2:45 AM 44.6 °F - 33.8 °F 66% 30.10 in 1.8 mi Calm Calm - N/A   Haze
2:53 AM 45.0 °F - 34.0 °F 65% 29.95 in 1.8 mi Calm Calm - N/A   Haze
3:53 AM 41.0 °F 38.0 °F 33.1 °F 73% 29.96 in 1.8 mi NNE 4.6 mph - N/A   Haze
4:53 AM 43.0 °F 41.3 °F 33.1 °F 68% 29.95 in 2.0 mi North 3.5 mph - N/A   Haze
5:53 AM 44.1 °F 42.5 °F 33.1 °F 65% 29.96 in 2.0 mi NNE 3.5 mph - N/A   Haze
6:26 AM 44.6 °F - 33.8 °F 66% 30.12 in 1.5 mi Calm Calm - N/A   Haze
6:46 AM 44.6 °F - 33.8 °F 66% 30.12 in 1.5 mi Calm Calm - N/A   Haze
6:53 AM 45.0 °F - 34.0 °F 65% 30.00 in 1.5 mi Calm Calm - N/A   Haze
7:28 AM 46.4 °F - 35.6 °F 66% 30.13 in 1.5 mi Calm Calm - N/A   Haze
7:53 AM 46.0 °F - 37.0 °F 71% 30.00 in 1.5 mi Calm Calm - N/A   Haze
8:36 AM 51.8 °F - 37.4 °F 58% 30.12 in 2.0 mi Calm Calm - N/A   Haze
8:45 AM 55.4 °F - 39.2 °F 54% 30.12 in 2.0 mi Calm Calm - N/A   Haze
8:53 AM 57.9 °F - 39.0 °F 49% 29.97 in 2.0 mi Variable 3.5 mph - N/A   Haze
9:04 AM 64.4 °F - 35.6 °F 34% 30.12 in 4.0 mi SSW 12.7 mph 19.6 mph N/A   Haze
9:12 AM 64.4 °F - 35.6 °F 34% 30.12 in 5.0 mi SSW 11.5 mph 19.6 mph N/A   Haze
9:25 AM 64.4 °F - 35.6 °F 34% 30.12 in 4.0 mi SSW 15.0 mph 23.0 mph N/A   Haze
9:53 AM 66.0 °F - 35.1 °F 32% 29.95 in 4.0 mi SSW 17.3 mph 26.5 mph N/A   Haze
10:29 AM 66.2 °F - 37.4 °F 35% 30.12 in 5.0 mi SSW 13.8 mph 20.7 mph N/A   Haze
10:53 AM 66.9 °F - 37.0 °F 33% 29.96 in 4.0 mi SSW 9.2 mph 26.5 mph N/A   Haze
11:28 AM 69.8 °F - 37.4 °F 31% 30.12 in 3.0 mi SSW 11.5 mph 21.9 mph N/A   Haze
11:53 AM 70.0 °F - 37.0 °F 30% 29.96 in 3.0 mi SW 11.5 mph 20.7 mph N/A   Haze
12:00 PM 69.8 °F - 37.4 °F 31% 30.12 in 4.0 mi South 15.0 mph 24.2 mph N/A   Haze
12:29 PM 69.8 °F - 35.6 °F 28% 30.12 in 5.0 mi SW 9.2 mph 25.3 mph N/A   Haze
12:53 PM 70.0 °F - 36.0 °F 29% 29.97 in 6.0 mi SSW 12.7 mph 26.5 mph N/A   Haze
1:34 PM 69.8 °F - 37.4 °F 31% 30.12 in 4.0 mi SSW 11.5 mph 24.2 mph N/A   Haze
1:53 PM 71.1 °F - 36.0 °F 28% 29.97 in 2.5 mi SSW 15.0 mph 28.8 mph N/A   Haze
2:05 PM 71.6 °F - 35.6 °F 27% 30.12 in 2.0 mi SSW 10.4 mph 29.9 mph N/A   Haze
2:37 PM 71.6 °F - 35.6 °F 27% 30.11 in 3.0 mi South 23.0 mph 35.7 mph N/A   Haze
2:53 PM 71.1 °F - 37.0 °F 29% 29.96 in 4.0 mi SW 8.1 mph 24.2 mph N/A   Haze
3:02 PM 71.6 °F - 37.4 °F 29% 30.11 in 5.0 mi SSW 9.2 mph 20.7 mph N/A   Haze
3:53 PM 70.0 °F - 36.0 °F 29% 29.98 in 10.0 mi SW 9.2 mph 23.0 mph N/A   Mostly Cloudy
4:53 PM 70.0 °F - 37.0 °F 30% 29.97 in 10.0 mi SSW 12.7 mph 21.9 mph N/A   Scattered Clouds
5:53 PM 66.9 °F - 37.0 °F 33% 29.97 in 10.0 mi South 9.2 mph 17.3 mph N/A   Partly Cloudy
6:53 PM 64.0 °F - 37.0 °F 37% 29.98 in 10.0 mi Variable 5.8 mph - N/A   Clear
7:53 PM 63.0 °F - 37.9 °F 40% 30.00 in 10.0 mi SW 4.6 mph - N/A   Clear
8:53 PM 59.0 °F - 41.0 °F 51% 29.99 in 10.0 mi Calm Calm - N/A   Clear
9:53 PM 54.0 °F - 41.0 °F 62% 30.00 in 10.0 mi Calm Calm - N/A   Mostly Cloudy
10:53 PM 51.1 °F - 41.0 °F 68% 30.01 in 10.0 mi Calm Calm - N/A   Overcast
11:53 PM 48.9 °F - 39.9 °F 71% 30.01 in 10.0 mi Calm Calm - N/A   Overcast